Theta_e
320 320 320 321 322 321 322 323 323 323 324 324 325 325 325 325 325 325 325 325 326 326 326 325 325 325 325 325 325 323 316 301 298 298 298 300 312 322 322 325 325 325 322 307 302 303 299 297 296 297 295 293 293 295 297 297 295 287 284 280 280 281 283 284 285 285 289 286 287 288 290 290 286 289 289 290 287 286 285 285 285 286 286 287 287 287 288 288
319 320 320 322 321 322 322 322 323 323 324 324 324 325 325 325 325 325 326 326 325 326 326 325 325 324 324 325 324 323 306 300 296 296 297 310 322 326 326 325 325 323 317 301 301 302 299 296 295 296 292 291 293 294 296 296 293 288 282 282 281 280 286 288 287 288 287 287 288 289 287 287 287 289 290 286 284 283 283 284 284 284 284 286 286 287 287 287
319 320 320 321 321 321 322 322 323 323 323 324 324 324 325 325 325 326 326 326 326 325 326 324 324 324 324 323 323 321 306 299 295 294 299 319 323 324 324 324 322 321 306 302 302 303 301 299 297 296 291 291 289 293 293 292 295 288 286 282 282 284 287 287 289 289 289 288 287 287 289 287 288 288 290 287 282 283 280 280 281 281 282 283 285 286 286 287
319 319 320 320 320 320 321 322 323 323 323 324 324 325 324 325 325 326 326 326 326 326 325 325 324 323 323 323 323 309 299 294 291 295 300 318 321 324 323 323 323 318 307 305 304 306 304 302 300 296 294 290 289 291 291 293 288 290 285 283 286 286 286 289 288 289 288 287 286 286 287 286 288 288 287 284 284 282 282 284 282 282 282 283 284 285 285 285
318 319 319 319 320 320 321 322 323 323 324 324 324 324 325 325 326 326 326 326 325 326 325 324 324 324 323 322 320 300 296 288 290 297 302 318 322 323 322 322 322 308 308 304 304 305 303 302 295 294 293 289 289 289 290 290 291 288 288 286 287 285 286 288 288 288 288 287 286 286 288 288 288 286 285 285 284 281 282 285 284 284 284 284 284 284 285 285
318 318 319 319 319 320 321 322 322 323 323 324 324 325 325 325 326 326 326 325 325 325 324 324 323 322 324 321 300 299 295 280 296 298 314 317 319 320 319 320 318 307 305 297 297 296 294 293 294 291 289 288 288 287 289 291 294 289 288 287 287 286 287 288 287 287 288 287 286 286 288 286 284 285 285 285 286 285 287 286 285 285 285 285 285 285 284 284
318 318 318 319 319 320 320 321 322 323 324 324 324 325 325 325 326 326 326 326 325 325 324 324 322 322 320 320 301 297 293 293 295 300 311 317 318 315 317 313 310 300 300 299 298 294 292 294 292 292 289 287 288 287 290 292 292 287 286 286 288 287 289 287 288 288 284 286 287 286 288 287 284 285 285 284 285 286 286 286 286 286 286 286 284 284 284 284
318 318 319 319 319 319 320 321 322 323 323 323 324 325 325 325 325 326 325 326 326 325 324 323 322 321 318 306 297 292 290 291 298 301 310 314 305 304 307 304 302 297 298 296 296 295 292 292 292 291 288 288 291 292 292 291 290 288 287 288 286 287 288 286 286 287 287 288 286 286 287 285 284 284 284 283 285 286 286 287 286 285 284 284 284 283 283 284
318 318 318 318 318 319 320 321 321 322 323 323 324 325 326 325 325 325 325 324 324 324 323 323 322 318 316 300 291 290 289 295 299 301 300 299 299 301 301 303 301 297 296 296 296 295 293 292 293 294 290 290 292 292 290 291 286 290 288 287 287 287 288 287 289 287 288 288 286 286 284 284 284 285 283 284 285 286 286 285 285 284 283 283 283 283 283 283
318 318 318 318 318 319 320 321 321 322 322 323 324 325 325 325 324 323 324 324 324 324 323 322 322 313 302 294 292 289 293 298 298 300 298 297 299 300 301 299 299 298 295 294 296 296 295 295 295 296 294 291 291 289 289 290 289 292 290 288 287 286 288 287 288 287 286 288 286 286 283 283 285 285 280 284 286 286 285 284 283 283 282 283 283 283 283 283
318 318 318 318 319 319 320 321 321 321 322 323 324 324 326 324 322 323 323 324 323 324 322 322 323 306 298 293 290 287 299 299 299 299 297 297 298 299 300 299 298 299 296 295 295 296 297 296 296 296 294 291 292 288 290 290 292 291 288 287 286 286 287 286 286 285 286 287 285 287 283 283 284 283 281 284 286 286 284 283 282 282 282 282 282 282 283 283
318 318 318 318 319 320 320 321 320 321 322 323 324 325 324 322 322 322 323 323 324 324 322 323 320 297 294 293 292 291 298 300 298 296 297 299 299 299 301 301 298 299 297 294 294 295 297 298 297 295 291 296 288 290 289 291 292 290 288 285 284 282 285 284 285 285 287 286 286 283 282 281 282 280 282 285 286 285 283 282 281 281 281 281 281 282 282 282
318 318 318 319 319 320 320 320 320 322 323 324 324 324 322 321 322 322 323 321 320 322 322 321 314 301 294 289 292 297 297 296 297 297 299 298 299 298 299 300 297 299 299 297 295 296 296 296 295 292 293 291 291 283 289 293 290 289 287 285 281 278 278 284 287 285 286 286 286 287 277 277 279 284 282 284 285 284 282 281 281 280 280 280 281 281 281 282
318 318 318 319 320 320 320 320 321 322 322 323 324 322 320 320 320 321 322 322 321 322 322 321 305 295 290 288 297 298 299 299 296 298 296 299 299 298 297 300 298 296 298 297 296 296 296 295 294 292 294 290 289 294 291 287 286 283 283 280 275 275 274 282 285 285 285 287 286 288 278 280 281 281 282 283 285 283 282 281 280 280 280 280 280 280 281 281
317 317 318 319 320 319 320 321 321 321 322 321 321 320 318 318 320 321 323 318 319 320 320 317 301 299 290 292 296 298 312 295 296 296 295 296 295 296 297 299 298 296 297 296 296 296 296 296 295 290 286 291 290 288 280 281 280 279 277 273 274 274 276 281 286 284 282 287 286 286 277 279 281 282 282 283 283 283 282 281 280 279 280 280 279 280 280 280
317 318 319 319 319 319 319 320 319 320 320 320 320 321 320 318 319 321 322 316 319 319 307 300 298 293 288 286 294 303 293 295 296 296 295 295 295 296 296 295 295 295 297 294 297 296 296 295 290 289 288 288 284 277 276 275 274 276 276 271 272 274 275 281 282 282 286 282 284 285 279 281 281 280 282 283 283 282 281 279 279 279 279 280 279 280 280 280
317 318 319 319 319 318 319 319 319 319 320 320 320 319 320 320 318 316 319 316 313 312 301 297 295 296 288 294 296 294 291 294 294 296 297 297 296 295 295 295 294 295 293 292 294 294 292 290 287 285 286 284 282 278 271 270 271 272 275 274 275 275 277 278 283 282 281 282 280 283 279 280 283 282 281 282 282 281 279 279 279 279 279 279 279 279 279 279
318 318 319 319 319 318 319 319 319 319 319 320 318 318 311 320 318 313 307 304 304 301 299 300 295 292 287 292 290 292 294 291 295 296 296 298 295 295 295 294 294 292 290 289 289 290 289 286 285 282 281 283 282 280 274 269 272 274 275 274 276 275 277 279 277 281 281 282 280 280 278 279 281 283 280 283 282 280 279 279 279 279 279 279 279 279 279 280
318 318 319 319 319 319 318 319 319 319 319 319 320 321 319 313 302 300 299 298 295 290 288 290 290 283 282 289 290 291 293 296 295 296 297 298 296 296 296 295 293 291 288 284 286 286 284 284 283 281 280 280 280 280 275 278 278 277 277 276 275 274 276 279 282 282 280 279 279 277 276 279 281 282 281 281 281 279 279 279 279 279 279 279 279 279 279 279
318 318 319 318 318 318 318 319 318 319 320 311 307 308 300 291 291 288 295 297 290 292 291 292 291 291 290 289 292 296 296 293 294 296 298 299 296 294 295 292 291 290 284 282 282 284 284 281 275 275 278 281 281 281 279 281 280 278 278 276 277 277 277 278 279 281 281 279 277 278 278 277 280 280 281 280 280 279 279 278 278 279 279 278 278 278 278 279
318 318 318 318 317 317 318 318 318 319 316 306 301 302 299 288 283 286 288 293 293 291 290 291 293 292 291 292 292 294 290 290 292 295 297 300 294 292 292 289 285 283 281 284 283 286 284 280 278 280 280 281 282 281 279 278 277 278 277 276 275 275 275 278 280 281 280 279 278 279 278 279 279 278 279 280 279 277 278 278 278 278 277 277 277 277 277 277
317 318 318 317 317 317 318 318 317 319 313 303 301 297 297 298 297 294 288 286 293 294 292 291 290 291 291 292 293 294 290 289 292 294 298 298 294 290 289 287 283 281 282 280 278 278 279 276 281 281 281 282 279 279 278 278 278 275 275 274 272 275 277 279 279 280 282 280 278 277 277 278 277 277 278 278 278 278 279 279 278 277 277 276 277 276 276 276
317 316 316 318 317 318 317 318 317 315 301 300 298 295 298 302 303 300 292 289 288 294 291 289 290 288 290 292 293 293 290 288 285 292 294 295 291 291 287 285 284 282 283 280 277 275 277 277 281 281 281 283 279 278 278 277 276 276 274 273 272 276 274 274 278 279 281 279 277 278 276 277 277 278 278 278 278 278 278 278 277 278 277 276 276 276 277 276
315 316 316 316 317 317 318 316 313 307 300 300 299 300 302 301 301 303 293 285 287 291 294 292 291 291 290 291 294 292 288 288 287 289 295 292 288 289 287 285 281 281 282 279 279 278 275 280 282 277 277 278 279 278 276 275 275 276 277 274 273 276 277 276 277 279 280 278 278 276 275 273 275 274 275 277 278 277 277 277 277 277 277 277 277 278 278 277
315 315 316 316 316 316 316 315 303 301 301 298 298 301 300 300 301 303 292 286 282 287 296 294 292 291 293 296 296 293 291 289 289 291 293 291 290 287 287 289 280 279 282 282 280 280 280 284 283 280 276 276 276 276 278 277 273 274 274 277 277 277 277 277 278 277 275 273 278 276 268 268 273 274 274 275 276 275 275 275 275 276 276 277 277 277 278 279
313 315 316 317 316 315 317 304 299 301 297 295 300 302 299 299 301 302 287 278 275 282 290 287 296 290 298 292 294 292 289 285 291 292 295 293 294 291 285 283 285 282 281 281 281 280 282 282 280 280 277 276 277 276 277 279 274 271 275 277 277 277 277 277 276 276 269 267 275 276 269 263 273 272 274 274 274 274 275 275 275 275 276 276 276 277 277 277
312 313 315 317 316 315 300 298 300 305 298 302 302 299 298 300 299 302 293 274 269 284 285 291 292 291 298 292 290 289 278 281 291 291 293 294 290 293 286 281 281 282 284 282 276 276 283 280 277 277 276 277 276 276 277 277 271 273 277 277 278 277 276 276 276 276 273 277 278 276 274 266 266 272 274 274 273 273 273 274 273 274 275 275 276 276 277 277
313 313 314 316 316 311 297 303 304 300 298 305 300 298 298 300 300 295 280 268 269 288 285 287 292 294 294 292 292 286 287 287 284 290 293 293 290 288 285 282 282 283 283 277 272 278 280 280 278 278 276 276 276 278 279 278 276 276 278 279 277 277 277 277 274 274 274 274 269 272 274 269 266 272 273 274 273 272 272 272 272 273 274 274 275 276 277 277
313 313 313 314 316 314 306 305 304 301 302 299 297 299 301 301 295 289 274 269 281 284 297 289 299 290 288 290 287 285 285 288 284 288 292 290 292 287 281 282 284 283 282 280 277 277 281 281 282 279 276 276 278 277 277 278 276 276 278 278 278 278 277 276 273 272 270 270 261 270 273 265 267 271 273 274 272 272 271 271 272 272 273 273 274 275 276 276
313 313 312 313 311 307 301 298 299 302 299 297 298 299 300 295 290 278 269 268 287 278 290 289 287 285 284 283 281 285 285 284 286 287 288 284 288 288 286 288 283 279 278 279 278 281 281 285 284 281 280 280 279 279 278 278 280 279 277 277 277 275 273 272 273 270 265 262 264 271 272 271 262 269 271 272 273 270 271 271 271 272 272 273 274 274 275 275
313 313 312 311 300 304 301 298 301 298 297 298 298 299 296 286 275 269 267 275 287 285 283 284 282 284 281 282 279 282 282 281 284 283 283 285 285 285 283 280 282 276 274 278 274 278 279 281 284 282 285 283 279 279 279 277 278 278 275 274 275 272 271 269 269 265 261 259 266 271 271 272 260 266 273 274 271 270 269 268 270 271 272 272 273 274 274 274
313 312 312 300 300 302 303 299 302 297 297 298 298 292 290 282 277 274 274 286 279 280 280 279 281 281 282 280 280 281 280 280 281 281 279 278 277 279 278 275 273 267 268 272 273 277 276 280 279 280 285 282 278 277 278 276 277 277 274 274 270 265 265 263 266 264 262 263 269 271 272 268 267 269 273 273 272 271 271 271 271 271 272 272 273 273 274 274
313 312 311 304 300 295 297 299 297 298 298 296 290 288 278 272 269 271 271 276 278 283 280 283 281 281 280 279 279 280 281 281 281 280 281 279 277 277 279 279 278 274 271 271 272 272 273 275 279 279 280 282 280 275 275 273 274 275 273 268 265 262 258 259 261 259 260 269 270 271 271 267 270 271 275 274 273 272 272 272 272 272 272 272 272 273 273 273
313 310 299 300 297 299 300 297 297 298 297 294 289 288 278 275 271 284 273 274 280 281 282 281 281 280 280 279 281 281 277 281 281 281 279 276 277 276 278 279 280 276 272 274 272 270 265 268 274 277 276 279 279 278 277 276 275 273 274 272 266 265 260 259 256 258 263 266 270 270 264 255 263 269 274 274 274 273 273 273 273 273 273 272 273 273 273 272
313 304 297 298 297 298 297 297 296 296 291 289 285 277 274 270 269 273 273 276 277 280 281 281 280 277 278 277 279 279 280 277 280 277 277 276 275 275 276 276 279 278 275 270 268 269 273 271 276 280 280 279 278 279 278 278 274 275 274 274 267 264 268 262 263 259 264 265 264 261 263 265 269 275 275 273 273 272 273 273 273 272 272 272 272 271 271 271
308 301 302 297 296 298 295 297 296 295 288 287 284 277 273 271 274 277 277 283 281 279 280 279 277 275 273 273 276 276 283 278 278 275 275 275 278 275 277 278 277 277 273 270 268 267 271 270 275 279 279 278 279 279 279 278 267 273 273 267 271 275 273 263 267 270 267 262 263 261 266 271 273 274 272 273 272 272 272 272 271 271 271 271 271 271 271 271
297 298 297 296 298 299 296 296 296 291 292 286 281 274 273 275 281 277 285 282 282 282 276 275 275 276 273 273 274 273 277 279 277 275 275 277 275 277 276 276 279 278 277 275 269 269 265 272 278 277 277 278 278 278 280 278 279 272 265 272 278 276 273 265 261 260 260 258 262 266 266 264 265 263 272 272 271 271 271 271 271 271 271 270 270 270 271 271
300 295 294 295 300 297 295 297 292 290 286 287 279 284 279 279 283 282 281 281 282 280 274 276 276 279 273 274 274 274 278 276 278 276 276 277 276 279 277 275 278 278 277 276 272 271 274 267 272 274 276 278 278 278 276 278 279 278 274 276 272 262 263 266 262 262 261 261 262 266 268 267 265 266 269 269 269 269 270 270 270 270 269 269 270 270 270 271
293 289 288 294 298 297 296 293 292 290 287 282 275 280 281 279 282 281 282 282 282 280 276 278 276 277 278 273 273 273 274 273 274 276 273 276 273 278 276 276 277 278 278 279 276 275 275 266 271 275 276 277 275 274 269 271 275 278 277 274 274 272 265 263 265 266 265 263 262 263 267 263 268 268 269 268 269 269 269 269 268 269 269 269 269 270 270 270
294 288 285 295 296 296 296 295 293 288 285 280 275 276 280 281 283 282 280 283 281 278 278 278 279 274 276 278 277 274 275 276 276 275 276 276 277 279 276 278 276 278 277 278 277 277 271 274 263 272 276 275 270 273 271 273 268 269 271 267 269 264 272 270 265 264 265 262 263 263 261 265 269 272 270 269 270 270 269 268 269 269 269 270 270 270 270 270
287 285 288 295 296 299 293 294 286 281 278 279 279 281 281 281 282 282 282 282 283 284 280 280 278 277 279 276 274 278 276 275 276 274 276 277 275 271 278 277 278 276 277 275 272 272 266 270 265 271 272 271 274 274 275 275 275 273 272 268 270 264 265 262 264 268 260 260 262 261 261 267 271 273 270 270 270 271 270 269 268 269 269 270 270 270 270 270
284 278 287 297 296 294 291 285 277 277 278 275 279 283 284 290 280 281 282 282 282 282 282 280 280 280 278 279 279 278 277 274 276 273 277 274 278 276 278 278 279 279 273 270 270 273 274 271 270 266 270 273 275 276 276 276 275 275 273 272 270 264 265 266 262 265 264 265 266 266 263 265 272 273 272 271 271 270 270 269 269 269 270 270 270 271 271 271
282 286 293 295 294 292 290 277 278 279 276 281 283 282 282 282 280 281 282 282 283 282 282 281 281 280 280 280 280 279 279 273 277 274 277 276 276 277 277 278 278 277 277 270 272 275 282 263 264 271 273 274 276 274 276 274 276 274 273 274 270 269 269 268 268 267 264 266 264 265 262 266 271 274 275 274 271 271 270 270 269 270 270 270 270 270 271 271
283 287 291 297 295 292 286 278 276 276 276 283 281 282 283 283 282 282 281 281 281 280 281 281 281 282 281 281 280 280 280 271 277 276 275 277 276 279 278 278 278 276 272 271 269 273 267 268 269 264 266 270 272 273 274 275 275 273 270 272 272 270 268 268 267 261 262 264 267 263 259 264 274 276 275 274 271 270 269 270 271 269 270 270 270 271 271 271
285 283 284 290 295 291 282 277 280 275 277 278 278 279 280 280 283 284 283 281 282 279 280 280 282 282 280 281 280 280 279 278 274 276 274 273 274 279 277 277 277 277 277 277 281 277 271 270 264 261 261 261 261 262 265 268 270 273 273 272 271 267 267 266 265 262 261 265 265 261 262 269 273 274 273 272 271 269 270 270 271 270 270 270 270 270 271 271
284 283 282 286 288 287 282 280 280 279 276 273 276 279 278 279 283 282 282 283 282 282 280 282 281 280 278 278 278 277 278 279 278 272 270 273 273 277 279 278 278 278 279 283 280 275 264 269 269 264 263 264 267 270 274 275 273 268 270 270 268 265 263 266 264 264 263 264 261 264 266 267 268 270 270 270 270 269 269 270 269 269 270 270 270 271 271 271
283 283 279 281 282 284 279 280 281 278 278 278 276 277 276 279 279 282 284 281 283 282 282 282 281 280 279 278 276 277 278 277 277 274 272 270 270 275 277 278 279 279 284 282 277 267 262 265 266 270 269 271 273 273 274 274 270 271 269 269 266 265 263 263 262 263 267 263 260 268 268 265 266 269 270 269 269 270 270 269 269 269 270 270 270 270 273 271
283 283 282 285 284 281 275 280 279 280 280 279 278 280 277 277 277 276 282 282 283 281 283 281 280 279 279 280 279 271 275 276 273 271 271 271 271 274 276 278 277 281 281 276 272 268 263 265 265 266 267 270 272 272 273 273 272 272 271 268 265 265 264 262 262 266 267 261 261 266 267 265 267 269 269 269 270 269 269 269 269 270 270 270 270 270 270 270
282 282 282 283 281 278 279 282 281 282 281 278 280 280 276 276 277 279 280 281 281 281 282 276 278 280 279 279 279 274 276 268 269 270 268 269 271 271 270 273 278 276 274 273 273 262 267 261 262 262 269 271 272 272 273 271 271 271 269 269 268 265 264 264 265 267 267 265 268 268 267 266 269 269 269 270 271 270 270 270 270 269 269 270 269 269 270 270
283 280 282 279 279 277 278 279 281 281 282 280 277 280 279 277 279 281 280 280 276 280 281 281 279 279 279 279 278 273 276 277 274 271 271 272 268 270 269 271 270 276 274 272 270 270 269 265 272 265 263 267 271 271 269 271 270 268 270 269 267 266 266 267 267 268 269 268 268 268 266 265 269 271 271 271 271 271 270 269 269 269 269 269 269 269 269 269
282 278 285 287 280 278 278 276 279 278 275 278 277 282 283 280 281 280 280 282 281 279 280 280 281 279 278 277 278 279 279 278 278 277 278 276 271 274 272 272 277 271 269 268 267 267 267 266 263 260 263 265 269 270 271 271 270 267 266 267 266 264 261 265 263 268 267 266 267 267 264 264 269 271 271 270 270 269 268 268 269 269 269 270 269 269 269 269
282 284 282 283 280 279 280 276 277 277 276 279 282 281 281 282 281 281 280 281 279 282 282 281 279 280 277 277 277 278 280 279 280 279 279 278 278 277 277 277 276 275 266 268 265 266 265 263 264 261 265 266 271 271 269 268 268 260 260 266 267 268 269 270 271 271 270 270 266 262 263 269 270 270 268 268 269 268 268 269 268 269 270 270 269 269 269 269
Wind_Speed
11 11 11 11 12 11 11 11 10 10 10 10 10 9 9 8 8 7 7 8 7 9 9 8 6 5 4 3 5 6 5 3 5 8 11 1 4 9 11 10 9 8 8 4 7 10 7 6 6 10 8 3 2 1 1 2 1 3 1 4 1 2 1 2 1 3 0 1 2 2 1 10 4 3 4 4 9 6 4 7 4 7 6 5 3 3 4 4
11 11 12 12 12 11 11 10 10 9 9 9 9 8 8 8 7 7 7 7 7 9 9 7 5 6 5 5 4 5 4 3 5 6 4 3 6 7 7 7 5 4 4 3 5 3 4 6 4 8 5 1 1 0 1 0 1 1 2 2 2 2 1 0 2 1 1 1 2 1 1 5 3 7 4 3 2 3 5 3 3 7 5 5 6 6 8 7
11 11 12 12 12 11 11 10 9 9 8 8 8 8 7 8 8 7 7 6 7 8 8 8 6 4 4 3 5 4 1 2 5 7 7 9 14 13 12 8 4 3 0 2 1 1 2 2 2 4 3 1 3 1 2 1 1 1 2 1 1 3 1 0 1 0 1 6 4 2 0 2 1 0 2 1 3 1 5 5 2 4 5 4 4 6 6 8
11 11 11 12 11 11 10 10 10 9 8 8 8 7 7 7 8 7 6 7 7 7 7 8 8 5 3 4 4 1 4 2 3 4 5 13 16 15 14 12 6 2 2 1 3 1 1 1 0 1 1 1 4 3 1 1 2 1 4 1 1 3 1 1 0 1 1 4 3 2 1 3 1 1 2 6 5 1 2 3 6 7 7 6 5 5 5 7
11 11 11 11 11 11 10 10 10 10 9 8 8 8 8 8 8 8 7 6 6 6 5 6 7 7 4 4 3 2 4 3 3 3 7 14 15 15 13 13 7 1 1 1 1 0 1 0 1 2 1 1 3 2 1 2 1 3 1 1 2 1 1 3 2 3 1 2 5 1 1 1 2 2 3 7 3 6 6 3 5 8 7 7 6 5 5 7
10 10 11 11 11 11 11 11 10 10 9 9 8 8 8 8 8 9 8 7 6 5 4 4 5 5 4 3 3 4 2 2 3 6 11 14 14 13 13 11 10 2 2 5 3 1 7 4 3 2 2 2 2 3 3 0 1 1 1 0 1 1 2 1 1 2 2 2 4 2 2 3 1 1 1 3 3 2 3 6 7 7 6 6 5 5 6 7
10 11 11 11 11 11 11 11 11 10 10 9 9 8 8 8 8 8 8 6 6 5 4 3 4 5 3 2 3 11 8 1 1 9 12 12 14 12 11 8 9 8 9 9 9 4 4 7 6 2 1 3 0 2 2 3 5 6 1 0 1 0 2 4 2 2 2 7 3 3 2 1 3 1 1 2 1 5 6 7 7 7 7 7 7 6 6 6
10 11 11 11 11 11 11 11 11 10 9 9 8 9 8 8 8 8 7 7 6 6 5 4 4 5 4 2 3 5 6 3 9 7 11 12 11 12 9 2 9 4 8 7 5 3 1 7 4 0 5 2 1 1 3 3 7 2 1 1 0 1 1 3 3 1 1 1 3 6 3 3 5 2 4 3 5 6 7 7 7 7 8 7 8 7 6 7
11 11 11 11 11 11 11 11 11 10 9 8 9 8 8 8 8 8 6 5 4 6 8 8 6 2 4 6 5 8 5 4 5 10 9 9 10 9 8 6 6 6 1 4 5 3 6 1 2 0 1 1 1 3 5 1 3 1 1 1 1 1 1 2 0 1 1 2 3 4 2 2 4 3 1 8 7 7 8 8 8 8 9 8 8 7 7 7
11 11 11 10 10 10 10 10 10 9 9 8 8 8 8 8 8 8 7 3 2 4 7 8 6 5 6 5 4 11 4 6 7 6 9 7 8 8 9 5 5 5 5 6 6 8 6 0 1 1 5 3 1 3 1 4 0 0 1 1 1 3 2 3 1 2 2 2 4 4 3 1 2 1 5 4 8 7 8 8 6 9 8 7 6 6 6 8
11 11 11 11 10 10 10 10 9 9 8 8 8 8 7 8 8 8 8 7 2 2 4 6 7 4 7 3 9 6 2 5 1 7 8 7 8 8 6 7 4 4 5 7 8 2 1 1 2 1 4 0 1 3 3 0 2 1 0 0 4 10 0 2 3 6 0 2 5 4 1 0 1 1 7 9 8 9 10 8 6 7 7 7 7 7 5 7
11 11 10 10 10 10 10 10 8 8 8 8 7 7 7 7 8 7 7 8 5 4 4 5 4 4 5 6 11 2 5 3 4 5 5 7 7 4 4 1 2 2 4 6 7 6 1 1 5 3 1 0 0 0 1 1 0 0 2 1 4 9 4 4 3 4 1 3 4 3 1 0 1 6 7 8 10 9 10 9 7 7 7 6 6 6 6 6
11 11 11 11 11 10 10 10 9 7 8 8 7 7 7 7 7 7 6 8 5 6 5 6 4 5 3 8 1 5 4 3 4 8 8 6 6 1 0 0 4 0 3 2 3 4 5 2 7 10 1 3 1 1 0 2 3 2 6 1 5 9 4 5 5 3 3 2 4 3 10 4 8 12 3 6 10 8 8 7 6 6 6 6 6 6 6 5
11 11 11 11 11 11 10 9 9 8 8 7 7 7 7 7 6 6 5 5 9 7 6 5 4 7 4 2 3 4 4 1 6 9 10 8 9 6 7 9 5 4 1 3 0 2 8 5 11 7 2 5 1 2 2 3 6 2 4 6 2 6 2 6 4 7 5 0 3 3 7 13 5 7 2 5 11 13 11 8 7 7 6 6 6 6 6 4
12 11 11 11 11 11 10 9 8 8 7 8 7 6 7 8 6 4 5 6 7 6 4 4 6 2 5 0 5 8 1 2 8 8 5 9 5 6 9 10 8 6 0 4 1 1 3 1 9 8 3 3 2 1 3 4 6 4 4 5 4 1 7 12 8 1 2 3 6 4 6 8 7 8 4 6 8 10 9 7 8 7 6 6 6 6 5 4
11 11 11 12 11 11 10 8 8 7 8 8 9 8 8 11 11 7 3 1 6 7 2 3 5 7 6 4 1 6 4 11 13 8 5 4 2 1 6 7 3 5 5 5 5 3 7 9 10 1 4 5 10 4 6 6 7 6 5 5 5 3 6 10 2 4 3 4 1 1 7 8 5 1 4 6 8 7 7 6 7 8 8 7 6 5 4 4
11 11 11 11 10 11 10 9 9 9 8 8 8 6 7 10 13 6 6 5 5 3 6 2 1 2 5 4 2 7 5 4 5 5 9 4 1 3 4 4 3 6 4 4 10 6 8 7 2 4 5 7 3 2 1 6 5 4 2 1 2 3 5 6 10 2 6 6 6 0 1 7 13 3 6 5 6 6 6 6 7 7 7 6 6 5 5 5
10 11 11 10 10 12 10 10 9 9 9 7 3 4 5 10 9 11 11 6 2 5 4 3 2 3 1 6 5 7 6 5 8 9 4 5 2 5 5 4 2 3 5 4 6 9 5 4 6 4 1 6 7 9 10 2 3 6 6 6 6 2 4 8 6 5 10 2 3 8 3 9 12 10 4 9 4 6 7 8 8 9 8 6 5 4 5 7
11 11 11 9 10 10 10 9 9 9 9 7 4 3 1 5 4 8 8 6 8 8 8 9 8 5 1 6 7 6 6 5 5 7 12 11 4 1 3 3 4 4 2 6 3 6 5 3 2 7 12 10 9 4 4 2 2 5 5 6 4 4 5 7 8 5 5 9 8 3 5 13 15 13 4 3 6 10 10 10 10 9 7 6 5 4 4 6
12 11 10 9 9 10 10 10 10 10 7 4 3 1 3 4 7 5 8 10 8 7 4 1 0 2 1 5 6 7 4 6 9 13 14 9 5 6 9 4 5 9 6 2 4 4 1 10 5 1 5 5 5 2 4 3 3 3 1 2 7 5 6 7 7 7 6 7 2 6 5 6 10 9 12 2 11 12 12 11 9 7 8 8 7 7 6 6
11 12 10 8 9 9 10 9 10 10 2 4 3 3 0 2 5 3 1 1 1 2 5 0 1 1 0 2 3 7 5 4 4 12 10 5 2 5 6 6 7 8 4 2 2 4 5 11 6 4 4 4 3 1 2 2 2 1 0 1 5 5 10 6 10 6 2 6 13 8 4 9 7 10 9 8 13 11 12 11 10 8 8 8 9 8 6 3
11 10 11 10 11 10 9 10 10 5 7 5 7 6 2 1 0 1 5 4 3 2 4 2 1 3 4 2 3 1 3 2 14 16 11 10 9 6 4 7 5 5 4 2 3 8 10 5 4 5 4 1 3 2 1 4 2 3 1 1 3 9 9 11 9 1 3 9 13 3 2 7 8 7 9 11 12 8 8 10 7 8 9 8 8 6 4 5
11 11 11 9 11 10 10 9 7 5 3 7 4 3 1 1 1 1 4 5 3 1 2 3 6 5 4 4 2 5 9 11 3 9 10 7 5 6 1 6 6 3 5 5 6 4 5 3 4 3 1 2 2 6 7 6 3 4 6 4 5 5 7 14 6 1 9 2 6 9 6 1 6 8 10 8 10 9 8 8 8 9 10 8 6 5 5 4
11 10 10 10 9 11 9 8 3 8 5 5 6 2 0 0 1 2 1 1 3 2 0 0 1 1 2 3 3 4 5 2 1 13 8 5 4 1 4 1 4 5 5 5 6 7 3 1 1 4 7 4 1 3 4 5 7 4 2 3 4 8 9 5 13 11 8 6 2 4 4 3 1 5 8 6 6 10 5 9 9 8 6 4 3 5 7 7
11 11 11 11 11 10 10 6 7 1 2 3 2 1 1 1 1 1 2 1 5 2 1 1 3 1 3 1 3 1 0 1 4 1 3 4 6 3 1 0 2 2 1 1 5 7 2 1 0 3 5 7 3 1 0 2 5 6 4 3 5 7 12 14 10 9 8 6 2 5 5 2 1 4 6 4 6 7 4 10 8 7 6 8 11 10 9 7
14 13 12 10 10 11 6 4 1 1 3 1 1 1 2 1 1 0 6 4 1 4 4 3 0 4 0 5 5 1 1 3 1 4 3 7 3 1 1 3 1 4 1 0 0 2 1 2 5 2 3 4 2 1 1 1 0 3 4 2 5 8 10 14 12 6 5 2 5 4 4 5 1 3 3 3 6 5 4 8 6 7 8 9 9 9 9 9
14 14 13 10 10 9 5 0 0 1 0 1 1 2 3 2 0 2 0 4 4 1 3 3 2 2 3 3 4 1 4 5 7 4 9 10 3 1 3 4 3 1 1 0 4 2 1 3 5 5 5 6 7 7 2 1 2 3 3 3 8 10 14 16 6 3 6 1 3 3 1 3 4 1 2 3 6 4 6 6 7 7 9 8 9 9 10 11
14 14 13 11 7 8 3 3 1 1 0 0 1 2 2 1 2 2 5 3 2 2 2 4 1 3 5 6 10 7 3 5 4 7 6 8 3 5 9 2 1 2 3 3 1 5 1 4 3 4 4 6 4 3 6 1 1 5 5 5 7 9 13 15 4 6 5 1 4 5 4 4 3 1 2 3 6 3 6 5 4 7 8 8 8 9 9 11
14 14 14 11 6 9 6 3 2 1 0 0 1 2 1 2 4 5 4 3 1 2 2 1 2 2 8 6 8 3 2 5 3 3 8 2 12 2 5 4 1 1 0 2 1 3 2 1 2 2 3 3 4 5 3 4 3 5 4 3 3 8 7 10 3 4 3 2 5 2 2 2 9 0 6 0 4 2 4 4 4 5 7 8 9 8 9 9
13 15 15 10 3 4 4 3 2 1 0 0 1 1 1 3 2 2 3 2 1 1 1 3 4 6 4 4 3 8 7 4 1 5 6 3 11 9 2 0 1 2 2 5 3 3 3 3 6 3 0 1 3 5 2 3 2 6 3 8 10 4 5 3 1 0 3 0 6 4 1 3 5 3 5 4 0 4 2 2 2 3 4 5 6 7 9 11
12 13 14 9 4 1 1 1 1 1 0 1 0 2 3 8 3 5 2 1 1 2 2 4 2 5 6 9 6 5 2 3 7 5 6 6 14 10 8 2 6 4 5 9 6 10 5 1 1 1 1 1 1 5 1 1 3 4 4 5 14 3 3 3 2 5 0 5 4 2 1 6 4 5 2 4 5 6 5 5 6 7 7 8 7 8 7 8
11 11 11 9 0 1 0 2 1 2 1 0 2 5 3 2 8 6 2 4 1 3 2 4 2 1 5 2 5 6 3 5 2 4 4 3 5 10 8 5 4 5 5 4 7 7 2 2 2 5 2 3 3 2 7 5 6 8 4 8 12 10 8 7 5 10 6 7 3 4 10 9 2 6 4 8 7 4 4 5 5 6 7 8 9 9 9 10
10 10 5 6 3 2 1 0 2 1 1 2 6 3 2 7 2 2 2 4 0 1 2 2 3 4 4 1 5 4 2 4 3 4 1 1 5 1 1 7 2 1 4 2 3 7 7 3 3 6 2 1 2 6 8 6 4 7 5 3 7 8 4 8 6 3 5 6 4 4 4 5 4 1 2 8 7 4 5 6 4 5 5 9 10 9 12 10
8 6 3 3 2 0 0 3 1 1 1 3 3 5 9 9 1 0 1 1 1 2 2 2 5 4 3 3 2 2 4 1 2 3 4 2 6 6 7 7 8 7 2 2 4 2 5 7 2 3 2 2 3 2 3 5 4 3 3 2 2 1 3 9 1 6 11 12 8 3 3 4 5 2 6 9 6 9 5 2 2 3 4 6 6 7 12 17
9 5 1 2 2 0 1 1 2 1 5 7 11 6 7 1 1 1 1 2 2 3 0 1 2 2 3 2 2 1 1 1 2 2 7 5 3 1 4 5 6 2 1 2 1 0 2 5 8 1 4 1 5 1 1 2 3 1 1 5 6 5 4 6 7 4 8 11 10 2 3 3 4 6 7 4 6 6 3 2 1 6 8 12 12 14 15 15
5 2 0 1 2 1 2 2 2 1 5 8 11 9 4 1 0 1 0 1 1 1 6 4 4 4 2 4 1 3 4 1 3 2 2 3 0 2 1 1 3 3 2 2 1 3 3 4 2 9 2 0 6 0 2 3 2 3 3 3 6 3 6 3 5 5 3 2 8 3 4 4 0 2 3 0 1 5 9 12 13 12 11 11 13 15 12 12
2 2 3 4 3 1 2 2 2 6 9 10 11 3 2 0 1 2 2 0 0 0 2 2 3 2 4 4 2 6 4 1 1 2 3 1 1 3 3 2 1 2 1 2 3 3 0 12 9 1 6 2 0 2 1 0 0 3 2 4 7 3 5 3 5 5 3 4 6 2 10 5 2 8 3 10 13 13 11 8 9 7 10 14 11 10 11 10
1 1 0 3 6 1 2 1 2 5 7 11 7 5 0 1 0 1 0 1 0 1 3 2 1 4 1 1 5 4 7 4 8 3 0 1 1 1 1 2 2 3 3 2 2 2 1 8 6 2 4 8 5 1 6 1 0 2 2 1 5 6 7 4 1 10 10 9 8 7 10 7 6 7 7 10 10 10 8 8 9 16 13 11 10 11 10 10
2 2 2 5 6 1 2 3 9 8 9 12 0 5 1 0 0 1 3 3 0 1 2 1 0 1 1 0 2 1 2 3 3 2 3 2 3 1 1 2 2 0 4 1 0 2 1 2 7 1 3 6 5 5 7 5 3 1 2 4 1 1 4 5 3 5 3 13 10 14 10 9 1 1 3 6 7 9 6 7 9 10 11 10 11 11 12 12
1 2 2 1 6 1 2 1 8 10 10 8 3 1 2 1 1 1 1 1 0 2 0 0 0 1 2 0 1 2 2 1 1 2 2 1 0 1 1 3 1 7 4 2 1 0 2 1 5 6 5 5 4 1 4 5 3 5 7 5 5 2 4 4 1 2 6 9 8 12 15 1 3 2 2 4 6 6 5 8 8 10 10 11 11 13 12 12
1 4 1 2 7 0 3 16 14 9 7 0 2 3 0 0 1 0 1 3 0 1 1 1 0 1 1 3 2 0 1 2 1 1 0 1 2 3 1 0 1 4 3 1 4 2 1 2 5 7 8 2 7 3 2 4 2 3 4 5 1 5 7 5 10 0 2 1 10 9 15 8 4 5 3 2 4 9 8 9 10 11 13 13 14 13 12 13
2 2 4 7 9 3 9 11 5 1 5 4 2 1 1 1 2 1 0 0 0 0 2 2 1 1 0 0 1 1 2 2 0 1 0 1 0 1 0 3 1 1 1 1 2 1 1 3 1 7 7 10 11 7 0 1 2 2 4 3 1 2 1 4 11 9 4 6 6 8 13 8 5 6 6 5 2 5 7 8 12 12 13 15 15 13 13 13
5 2 1 6 5 8 15 7 3 6 4 0 2 2 1 1 2 1 1 1 0 1 1 2 1 1 1 0 0 0 0 1 0 1 0 0 2 3 4 2 1 3 1 3 1 1 2 1 4 8 6 7 11 5 1 2 2 6 1 1 2 6 4 6 9 4 6 11 9 9 9 8 3 6 12 15 7 5 5 7 13 14 13 14 15 16 17 16
2 3 4 5 6 4 9 4 2 1 2 1 3 1 1 1 1 2 1 1 1 2 1 0 2 1 0 0 0 1 1 1 1 1 0 1 0 1 3 2 2 1 2 0 1 4 3 2 1 7 8 11 9 5 3 1 2 1 6 5 0 4 6 9 5 2 3 5 9 6 16 14 5 11 15 15 9 11 11 12 13 16 16 15 15 14 14 15
4 1 1 7 11 10 4 4 9 6 1 3 1 3 1 2 1 0 0 1 0 1 0 1 0 1 0 0 0 0 1 2 2 1 1 1 1 1 5 3 2 0 1 3 1 1 0 3 3 3 7 13 15 15 15 15 11 7 2 6 6 5 10 7 7 2 3 1 6 7 14 13 16 19 20 16 12 11 13 13 12 12 15 16 16 16 15 15
2 4 6 8 10 8 6 2 6 8 6 2 4 0 1 1 1 2 3 1 1 0 1 1 0 1 1 2 2 2 2 1 1 2 1 1 1 1 3 2 3 1 2 3 2 2 1 0 1 4 1 7 10 11 11 10 11 9 15 10 10 1 3 1 2 5 9 9 10 11 13 19 22 20 21 16 14 18 18 16 15 16 15 16 15 15 15 16
2 5 1 1 3 9 3 5 3 2 3 3 3 0 4 1 1 1 3 1 1 1 1 3 1 1 2 2 1 1 1 3 1 0 0 2 2 2 4 3 3 2 4 1 2 2 2 1 3 2 5 9 13 14 15 10 12 16 13 12 5 2 3 3 3 9 7 10 15 11 21 23 23 23 15 13 13 15 15 16 18 15 16 16 16 16 19 17
4 1 2 0 3 1 4 4 3 6 3 3 1 1 1 0 2 1 2 1 0 1 0 0 5 1 0 0 0 0 3 4 1 1 1 1 1 3 2 1 1 1 1 1 1 1 1 1 5 3 10 9 14 14 13 11 7 11 12 7 6 3 4 5 5 7 9 6 16 25 25 25 24 20 15 13 15 17 18 18 16 17 17 18 18 18 18 17
4 2 1 1 2 1 1 2 4 7 8 3 2 2 1 2 2 0 0 3 2 2 2 1 3 4 3 2 1 0 0 4 3 1 3 2 1 2 2 2 0 3 1 1 1 1 1 2 5 5 10 12 13 11 10 9 11 13 9 6 1 3 3 4 7 9 8 12 19 22 24 24 20 15 15 16 16 16 15 14 15 18 19 20 19 18 18 19
2 3 1 5 7 4 1 1 2 5 6 3 3 1 2 1 1 0 0 1 1 1 1 2 3 5 3 0 1 1 1 3 4 3 0 3 4 1 2 4 2 1 2 0 0 1 2 5 5 2 3 10 13 7 4 8 12 11 12 4 2 1 3 6 6 11 12 15 17 21 21 20 9 10 14 15 14 15 15 16 18 16 18 20 20 19 19 22
2 1 5 10 5 3 2 3 2 4 3 6 5 0 2 0 1 2 1 0 0 0 1 0 1 3 1 2 2 0 2 2 2 6 3 2 1 3 1 3 2 2 3 1 1 3 4 5 2 1 6 7 3 8 13 16 16 8 4 5 5 3 3 5 7 9 12 20 22 20 16 14 12 13 16 15 15 16 19 19 17 17 18 19 19 21 22 20
3 1 6 7 7 2 3 1 1 3 3 1 1 0 1 1 1 1 2 0 1 0 1 0 2 0 1 2 2 2 1 2 2 4 2 3 1 0 1 1 2 1 1 0 1 1 0 1 5 4 7 9 9 8 16 18 9 5 5 1 3 7 10 9 11 13 14 17 18 15 14 12 17 18 20 18 16 17 17 16 17 19 18 18 20 22 22 19
Wind_Direction
1 359 352 349 348 348 346 346 347 350 344 344 342 340 336 333 325 326 327 324 316 324 325 334 345 334 320 323 335 344 7 82 27 29 40 212 239 269 289 292 292 299 311 344 359 25 345 353 1 346 7 26 296 10 265 46 71 59 61 115 15 205 113 221 172 185 191 116 280 328 116 121 150 200 177 104 42 84 78 80 70 50 62 111 133 87 57 29
360 354 349 346 345 344 342 344 346 344 340 338 338 331 335 324 319 322 321 316 318 315 317 321 324 331 332 334 336 348 58 54 38 39 47 290 305 307 309 306 285 279 313 17 18 36 18 328 355 5 22 3 306 194 13 261 74 99 116 82 228 197 243 156 173 224 124 211 212 236 211 154 191 155 203 87 150 94 78 44 54 86 66 62 58 53 45 38
356 348 346 345 342 340 340 340 339 335 334 330 331 329 324 319 316 319 313 305 309 310 308 316 321 328 327 322 289 349 36 6 28 9 326 332 338 344 347 339 289 200 77 307 251 176 201 232 14 19 346 299 352 245 38 280 51 209 117 44 246 208 195 237 177 178 174 139 175 193 268 83 353 146 15 153 149 43 133 142 55 92 111 93 72 59 54 50
350 346 344 342 338 337 335 335 331 328 326 330 323 323 317 319 316 312 300 295 299 304 301 309 313 326 332 313 319 334 72 59 25 303 297 329 337 338 344 341 338 172 115 184 187 190 167 70 15 136 338 60 300 52 59 297 72 284 67 150 217 206 110 290 202 211 215 154 182 184 67 64 30 140 109 147 100 296 268 213 164 164 150 123 101 87 67 63
345 344 341 337 334 331 333 330 326 325 325 326 322 320 323 317 313 302 300 293 300 298 300 299 313 324 333 334 345 82 76 53 296 293 289 330 331 338 338 345 351 160 211 221 121 265 155 131 104 40 76 260 356 22 62 326 114 79 53 204 184 92 97 241 239 197 47 42 108 53 80 198 196 40 112 151 171 230 200 198 159 144 142 130 111 97 82 73
344 340 340 334 331 329 329 326 323 322 323 319 324 322 322 315 307 303 304 311 313 311 297 284 300 326 317 340 63 68 84 81 298 309 313 321 330 332 337 343 356 78 77 37 50 8 65 8 83 36 3 67 335 90 299 288 357 65 315 292 289 200 140 240 232 239 169 99 121 154 212 91 78 150 188 161 203 230 180 147 144 139 135 124 111 107 88 80
343 339 335 333 329 328 324 322 320 319 319 325 323 325 318 315 305 303 304 307 311 314 307 309 311 331 333 48 46 75 88 199 290 278 320 323 324 334 334 349 5 42 39 37 17 56 31 41 67 18 74 39 344 93 356 335 18 102 176 294 15 124 123 178 203 163 109 121 194 200 90 160 155 272 169 101 243 159 140 139 135 126 116 110 98 101 106 99
339 335 333 331 328 322 320 318 319 316 320 324 324 320 316 310 309 299 299 300 306 302 333 352 342 329 358 53 45 32 49 320 291 288 314 331 329 330 335 347 20 35 46 60 31 30 78 46 35 108 60 111 280 93 319 51 16 75 31 290 263 130 221 233 216 103 127 96 109 112 151 248 173 196 106 175 168 161 152 134 123 119 106 99 107 104 99 91
334 333 332 328 325 316 315 316 315 316 318 322 321 315 313 311 307 300 291 303 318 323 344 359 10 77 96 84 103 65 356 253 269 297 322 331 321 331 16 16 348 46 52 37 45 56 94 302 47 146 219 72 350 75 341 77 331 29 300 309 337 315 270 265 332 279 206 123 140 106 258 312 213 170 206 183 184 174 149 128 131 121 116 117 118 117 107 100
335 333 332 327 320 315 312 312 312 315 319 318 313 314 314 314 304 300 288 299 334 343 352 355 31 101 56 78 52 62 272 257 292 315 325 324 324 2 15 25 16 30 31 351 21 36 58 273 173 218 132 81 94 23 273 69 243 183 306 15 69 308 359 344 287 281 228 208 195 180 218 259 229 17 276 198 189 162 140 139 140 129 130 129 123 115 113 107
334 333 330 322 317 311 311 313 311 313 318 317 317 315 308 307 305 302 311 314 20 21 22 2 360 65 53 61 79 76 273 22 329 337 327 336 358 22 346 338 347 29 33 16 35 43 168 288 209 89 51 194 70 333 67 220 205 84 153 60 359 341 103 341 339 283 39 274 185 183 232 315 263 58 232 179 189 164 150 150 147 132 132 130 122 112 109 100
334 331 324 320 316 314 317 314 311 306 320 318 313 309 310 306 305 307 314 309 325 74 73 22 17 96 78 67 70 80 252 265 334 329 344 8 341 284 290 3 13 70 67 29 17 16 28 101 92 69 202 214 29 303 26 257 108 20 67 62 309 359 18 352 8 291 104 278 146 142 90 23 214 235 241 181 160 165 153 157 153 137 133 126 115 104 97 101
332 328 325 321 320 315 317 317 318 315 321 324 315 315 312 313 312 315 321 329 335 10 44 46 38 77 86 40 38 250 292 311 7 353 353 16 331 264 31 29 358 19 93 88 24 348 34 94 91 71 323 98 173 83 237 53 330 52 30 71 11 1 359 326 355 360 11 260 82 86 311 249 240 244 269 175 156 153 152 161 151 137 126 118 110 104 98 94
329 330 325 320 316 318 318 323 328 324 321 313 315 317 310 300 294 300 323 316 315 350 28 41 88 65 79 114 260 262 281 339 16 9 357 336 16 313 344 349 8 42 45 58 102 50 54 38 81 113 100 60 38 332 38 347 17 63 291 59 63 14 278 299 23 296 355 338 87 52 295 294 299 287 230 177 165 164 173 165 146 133 123 112 107 106 104 105
331 328 322 320 322 324 324 321 325 323 322 332 332 339 8 355 321 303 313 336 344 351 57 69 48 73 45 309 267 293 342 62 19 355 341 3 353 339 347 337 346 355 126 55 19 57 88 71 68 33 357 340 25 34 3 30 10 5 49 310 330 98 284 307 315 1 312 331 9 357 275 257 293 290 192 184 175 168 172 152 136 129 120 112 109 106 102 108
327 325 320 325 325 330 331 329 332 330 332 332 331 325 341 14 11 12 21 259 303 359 91 54 359 99 111 30 296 358 40 10 349 317 330 28 4 335 292 280 295 11 41 20 49 41 40 58 75 135 345 352 47 66 32 28 348 1 62 289 297 330 275 341 288 21 98 324 347 48 269 311 305 333 200 208 178 170 157 121 122 124 119 110 111 104 109 103
325 324 324 323 324 331 330 333 334 332 333 328 328 321 328 3 2 32 39 44 6 328 70 6 50 87 75 262 331 18 345 306 285 332 340 356 119 311 333 23 15 5 14 28 26 43 4 56 320 26 40 80 336 70 63 18 324 311 28 284 240 292 324 314 310 351 17 47 316 106 270 273 280 296 218 216 190 157 119 109 107 105 105 110 108 112 113 75
324 323 324 325 318 333 331 332 332 326 318 317 312 326 333 339 6 47 356 14 2 70 85 94 106 40 335 6 22 317 307 298 340 308 288 342 88 7 35 22 335 44 44 10 0 36 336 51 30 154 39 33 31 33 76 328 284 304 327 339 321 310 254 261 313 277 13 25 316 314 282 281 298 307 196 217 168 102 96 104 104 103 104 104 104 102 90 79
326 325 323 323 319 325 328 327 325 328 327 304 287 263 335 18 17 57 38 343 39 352 25 339 20 63 58 309 276 276 297 271 269 10 348 346 340 45 32 61 49 50 1 52 325 46 351 77 47 43 16 347 358 64 122 212 218 244 244 242 249 284 300 299 271 300 34 329 324 310 325 316 306 308 345 216 94 101 99 94 92 95 95 84 76 70 66 78
328 322 321 320 323 329 329 333 338 336 338 37 17 31 16 21 5 356 348 31 63 98 146 275 183 216 335 332 338 291 264 10 27 351 0 359 350 6 40 46 10 55 57 53 329 20 62 69 57 44 253 278 279 211 188 220 187 260 245 189 255 260 278 274 272 276 355 346 255 308 332 286 292 344 336 95 95 91 93 92 90 84 79 70 65 53 47 59
324 323 318 308 328 331 332 333 343 347 64 88 77 64 59 156 80 64 297 17 206 72 85 64 156 128 260 248 296 351 16 323 47 7 0 300 88 58 341 20 12 42 351 303 126 327 61 64 354 286 240 238 265 227 115 84 110 79 144 54 318 300 305 286 282 324 357 45 299 332 19 305 358 6 12 69 83 85 101 95 88 90 82 73 59 49 46 44
322 320 319 321 332 339 335 340 343 26 73 88 69 96 127 170 146 171 120 56 13 18 45 32 345 31 328 226 263 101 129 352 9 1 352 24 346 79 319 74 53 54 322 359 17 20 42 69 290 289 281 123 68 60 84 78 10 35 48 282 12 308 280 267 268 39 14 351 295 16 44 310 32 19 34 65 82 84 76 92 102 90 78 66 55 48 40 28
330 323 325 324 334 337 336 335 345 47 37 38 62 72 90 219 337 234 94 123 86 305 48 11 23 15 354 329 333 56 47 37 323 345 347 10 353 61 42 48 22 15 7 26 93 47 52 329 304 322 53 123 3 21 26 14 66 39 350 20 305 279 22 329 283 115 331 241 276 318 316 239 90 54 56 44 76 89 87 85 77 75 78 66 54 50 30 18
337 335 332 337 334 337 335 332 357 42 34 107 89 112 230 62 57 130 62 96 136 332 47 250 105 49 16 13 344 33 57 353 69 345 346 28 35 268 68 99 51 41 20 9 90 107 164 229 51 63 40 65 75 6 50 35 352 309 210 263 306 321 315 205 290 324 307 298 198 285 355 19 54 97 69 48 76 79 67 76 70 74 80 85 72 39 27 26
354 350 348 341 337 334 324 7 44 23 156 49 50 244 292 38 81 94 96 12 17 9 176 325 108 21 314 287 1 175 273 73 65 232 318 59 340 37 5 118 94 356 237 30 58 65 359 307 16 24 25 32 62 16 309 58 346 327 252 215 284 292 306 301 299 343 343 333 346 33 5 329 30 82 107 118 71 64 43 71 67 60 43 33 26 19 12 25
5 4 354 344 336 327 312 53 327 156 72 75 208 317 314 24 88 99 91 76 33 270 357 11 69 354 84 338 2 314 57 40 50 21 7 347 220 86 22 14 73 22 335 211 86 155 159 356 63 55 60 20 55 116 243 73 312 15 295 187 284 301 294 293 306 11 306 307 302 58 122 269 156 121 144 108 90 81 57 72 70 49 35 28 22 11 8 13
7 4 2 351 344 346 57 267 208 147 24 318 241 309 312 15 148 99 33 354 32 301 4 263 54 338 52 325 313 51 47 300 328 352 16 8 23 321 96 321 5 340 121 178 39 317 355 337 19 35 46 36 20 5 307 116 52 294 261 14 322 320 311 296 309 191 235 251 281 18 46 223 301 76 148 147 93 86 67 62 52 41 28 24 14 10 9 9
4 4 1 358 355 48 157 129 39 69 175 175 6 329 335 312 99 42 77 65 335 332 16 317 32 329 66 314 17 78 157 295 29 342 20 321 40 354 83 8 93 296 312 72 46 263 96 325 26 2 35 40 4 287 293 172 228 254 285 345 304 296 303 293 306 266 241 299 295 340 307 349 294 288 167 180 102 57 71 62 40 31 27 15 12 7 5 2
360 2 1 357 84 78 72 101 123 169 210 263 320 340 304 63 91 110 125 105 263 61 181 92 264 29 338 3 35 20 344 8 74 296 324 296 25 180 45 358 149 208 27 106 144 311 322 123 258 113 82 328 268 285 267 175 352 282 275 268 261 302 286 287 278 282 315 88 276 332 341 32 294 191 188 214 89 108 78 59 34 33 19 11 3 356 353 349
358 359 360 358 100 20 5 43 51 170 13 315 337 295 61 59 34 36 22 21 1 324 26 275 57 302 20 23 340 7 34 344 81 313 21 64 327 27 52 31 85 48 342 13 81 168 278 301 164 76 183 221 279 284 202 216 245 276 11 348 323 297 275 318 79 95 54 307 250 179 94 96 288 229 193 173 273 102 63 24 48 17 21 13 2 353 348 347
359 357 2 10 81 187 61 16 292 191 178 22 292 65 77 41 105 102 73 240 50 289 12 23 342 14 28 38 353 338 21 347 350 28 355 3 6 25 2 18 24 50 38 11 341 330 355 11 88 260 16 331 111 322 281 260 291 46 356 353 333 326 341 21 340 34 108 266 259 153 65 331 291 295 125 125 128 119 98 44 12 2 7 356 352 344 341 340
354 357 8 36 306 71 109 191 161 114 91 162 77 60 75 282 13 70 167 328 77 304 65 298 333 41 9 316 52 344 338 333 351 35 42 18 39 37 2 92 341 34 339 355 328 343 44 117 275 312 256 89 320 349 298 348 5 28 2 5 16 326 358 334 11 340 315 280 264 345 4 343 217 213 141 145 134 131 108 92 28 5 352 350 346 343 341 340
348 350 14 34 18 41 1 99 60 73 76 64 69 48 53 92 58 281 299 326 191 14 299 134 263 4 311 46 347 325 267 42 314 36 112 10 93 33 71 69 301 127 326 327 323 16 281 290 332 316 18 194 36 4 322 355 346 14 12 27 35 348 359 294 292 232 277 278 182 20 349 280 248 293 117 155 157 133 98 49 45 0 355 341 341 344 343 337
353 6 40 356 60 354 56 79 72 68 59 41 71 34 49 59 177 285 331 275 282 358 18 20 327 347 51 82 319 353 12 269 59 341 46 352 44 21 338 357 30 358 64 323 46 339 23 346 309 19 346 339 3 216 254 245 301 272 198 106 143 216 295 294 204 269 273 284 311 66 2 228 301 201 148 106 125 81 92 118 33 357 357 336 320 330 339 355
353 42 81 355 15 332 114 98 85 73 85 67 53 82 92 208 223 190 282 303 307 318 276 330 317 41 334 21 314 343 142 307 49 58 18 54 5 50 339 323 338 85 211 47 289 64 256 231 259 159 248 295 308 275 140 336 307 253 182 105 52 285 151 238 230 228 291 302 315 332 212 222 259 151 137 122 93 100 99 47 269 353 359 354 351 355 357 351
18 347 64 345 34 303 126 119 106 71 86 64 77 45 82 174 115 123 93 197 300 7 308 355 58 40 304 311 309 42 314 55 320 78 0 65 209 40 293 282 3 354 24 58 247 14 353 285 264 321 41 64 355 289 300 114 17 286 54 307 262 236 160 271 318 254 306 287 257 182 322 318 325 152 191 114 35 16 11 9 4 0 355 345 353 355 347 338
20 337 35 333 7 319 142 115 89 81 73 89 87 71 196 306 198 171 320 59 276 220 31 82 324 65 334 308 276 344 309 43 323 74 354 163 357 8 344 310 238 31 66 136 322 177 135 278 305 346 318 306 214 237 237 339 178 60 5 283 287 122 138 119 265 310 262 246 273 268 289 290 22 286 10 4 1 353 352 343 342 333 351 358 346 336 331 324
13 47 160 19 330 356 94 127 78 58 75 77 65 128 228 89 204 193 205 25 43 17 80 83 279 78 293 44 315 346 317 76 320 38 105 9 238 123 89 313 307 100 341 307 127 288 122 318 296 275 254 285 342 33 337 335 95 213 207 196 33 321 343 317 65 302 310 288 285 279 281 265 206 268 5 356 343 322 327 328 323 351 353 339 327 317 314 319
55 79 22 323 333 128 159 96 65 66 75 67 77 88 269 176 229 176 212 155 175 110 82 260 228 324 108 47 254 311 339 28 308 24 44 340 29 98 105 177 297 126 355 62 64 286 7 262 301 297 51 298 322 53 319 292 330 10 35 20 17 128 272 330 241 261 270 288 310 292 295 285 256 34 322 334 317 307 307 322 348 346 331 325 319 315 318 319
35 34 349 306 336 75 162 92 64 47 58 96 179 107 198 96 237 271 170 177 231 92 334 79 243 303 357 234 98 345 299 45 9 294 89 301 254 46 67 358 258 312 347 330 127 55 291 157 263 276 320 8 352 316 265 292 301 331 3 336 353 316 213 199 265 205 257 281 281 303 301 297 132 118 110 294 292 274 322 341 337 330 323 320 314 316 313 306
47 104 265 334 347 315 28 45 42 35 83 128 86 129 27 194 194 291 259 212 273 287 163 168 146 72 276 12 345 284 323 0 0 32 135 326 64 326 175 186 123 316 334 20 50 335 29 355 234 310 340 295 281 236 235 297 283 285 1 284 246 300 319 338 286 151 6 329 287 302 287 299 127 154 132 251 234 330 345 339 329 323 320 315 316 309 302 305
86 45 302 330 346 86 75 59 12 83 92 75 77 122 109 106 68 310 11 197 197 52 3 103 36 108 92 252 224 330 2 325 336 73 321 107 312 163 211 116 248 233 56 38 289 250 150 210 215 295 263 282 259 269 250 239 192 202 168 292 149 168 113 309 295 292 315 255 281 271 287 303 170 130 167 174 18 347 337 333 323 319 317 318 314 305 301 301
48 134 246 334 350 74 72 57 325 37 63 210 265 22 15 51 125 227 81 330 12 79 14 52 203 43 209 294 315 351 118 278 59 313 243 282 259 217 233 3 34 70 118 314 16 264 85 74 334 279 275 253 281 322 122 51 22 336 356 88 43 316 274 266 267 292 293 295 304 291 265 291 179 232 351 354 1 333 317 327 321 319 320 316 312 311 307 306
139 83 351 346 22 95 80 121 99 56 68 3 65 101 340 157 98 5 24 325 87 359 95 340 341 112 283 114 124 330 294 6 236 91 350 167 273 131 305 19 350 354 96 312 104 277 11 290 95 317 340 330 334 341 327 267 18 333 310 308 107 316 290 268 251 91 249 247 281 327 294 297 321 343 336 333 346 333 328 326 326 321 322 318 313 307 303 303
104 335 29 317 7 53 97 183 128 144 154 130 105 44 349 20 107 144 155 19 346 149 84 350 198 248 308 221 258 239 317 103 294 1 117 164 241 333 305 146 229 145 200 233 176 326 138 262 74 42 346 336 332 335 331 331 329 307 268 318 321 320 303 351 317 2 287 267 15 304 288 287 310 325 325 333 344 332 323 317 316 317 316 317 312 309 308 308
43 97 313 2 14 40 62 45 92 125 126 132 55 301 106 69 8 323 126 11 135 315 100 236 351 96 32 29 15 3 344 6 112 277 51 305 300 319 244 293 158 203 232 179 76 74 172 305 145 154 177 251 257 268 283 310 315 307 304 319 319 349 314 227 304 293 299 314 303 263 272 308 314 324 328 340 342 333 322 322 325 325 321 316 308 308 309 311
125 75 42 61 334 48 62 14 53 56 147 162 96 213 33 65 256 346 178 34 15 94 31 56 328 40 329 58 345 323 272 309 346 106 298 200 255 242 290 207 280 214 183 103 137 80 64 356 259 199 231 247 265 280 290 302 289 291 303 307 312 324 331 360 339 287 325 325 295 309 317 313 311 320 332 340 332 320 316 321 325 323 320 316 311 306 310 313
74 248 97 201 124 189 41 1 71 81 32 72 117 72 130 40 22 88 337 94 165 358 129 334 39 48 187 156 152 353 322 318 8 258 347 217 341 330 0 353 33 334 116 1 82 113 131 197 267 98 265 255 271 280 286 289 266 284 298 300 282 315 16 342 283 290 322 320 302 311 315 311 312 321 339 335 328 321 323 322 319 316 313 314 313 312 317 326
113 132 129 340 89 247 142 145 90 96 65 69 113 73 82 89 87 197 155 319 31 348 42 39 331 326 303 277 146 258 346 27 321 267 160 288 257 334 345 337 64 37 78 31 23 156 81 251 244 208 287 292 288 279 279 283 292 305 306 287 156 51 345 291 291 290 281 277 291 301 307 304 309 326 334 325 325 321 316 313 314 319 321 317 314 317 329 330
193 129 135 15 82 99 19 47 80 60 62 356 90 328 137 160 145 277 6 69 16 323 356 87 292 314 303 190 124 118 232 205 211 270 246 104 322 125 224 186 247 350 57 114 83 308 90 288 341 324 320 296 292 286 285 299 309 307 318 345 101 58 317 303 308 311 297 289 302 305 305 304 325 326 313 318 320 314 310 317 321 317 318 316 317 326 331 329
158 138 156 123 68 339 31 27 50 88 72 345 73 242 78 216 138 163 86 312 146 243 5 260 241 312 47 80 60 232 266 206 217 222 221 164 236 226 138 288 152 277 349 16 19 316 52 287 53 73 338 296 289 313 325 322 317 303 290 11 7 21 341 283 302 297 313 312 311 312 311 310 316 318 318 320 319 320 319 321 321 321 317 316 324 331 330 329
75 51 80 103 87 333 71 7 20 60 27 253 149 256 124 179 176 119 79 10 77 82 190 260 251 162 321 28 299 257 272 207 223 226 212 214 220 177 227 224 157 193 221 129 200 1 156 337 344 340 341 291 305 352 327 312 310 8 339 280 348 337 324 302 295 310 311 313 315 318 312 318 320 326 322 322 324 318 317 319 319 316 315 322 330 329 329 326